Regional Weather Roundup
Issued by NWS Wilmington, NC

Home | Current Version | Previous Version | Text Only | Print | Product List | Glossary On
Versions: 1 2 3 4 5 6 7 8 9 10 11 12 13 14 15 16 17 18 19 20 21 22 23 24 25 26 27 28 29 30 31 32 33 34 35 36 37 38 39 40 41 42 43 44 45 46 47 48 49 50
000
ASUS42 KILM 030610
RWRILM
RWRILM
REGIONAL HOURLY WEATHER ROUNDUP
NATIONAL WEATHER SERVICE WILMINGTON NC
200 AM EDT WED SEP 03 2014

NOTE: "FAIR" INDICATES FEW OR NO CLOUDS BELOW 12,000 FEET WITH NO
SIGNIFICANT WEATHER AND/OR OBSTRUCTIONS TO VISIBILITY.

...............WFO WILMINGTON COUNTY WARNING AREA...............

......COASTAL NC AND SC COUNTIES......

CITY           SKY/WX    TMP DP  RH WIND       PRES   REMARKS
WILMINGTON     FAIR      79  75  87 SW7       30.03S
SOUTHPORT      FAIR      80  73  79 SW13      30.04S
N MYRTLE BEACH FAIR      81  74  79 W5        30.04F
MYRTLE BEACH   FAIR      81  73  78 SW5       30.05F

......INLAND NC AND SC COUNTIES.......

CITY           SKY/WX    TMP DP  RH WIND       PRES   REMARKS
LUMBERTON      FAIR      77  72  84 S6        30.03S
ELIZABETHTOWN  FAIR      78  76  94 SW5       30.04R
WHITEVILLE     FAIR      78  74  89 SW5       30.03F
FLORENCE       FAIR      76  70  82 SW6       30.04S
DARLINGTON     FAIR      72  66  83 SW5       30.05F

....................REST OF NORTH CAROLINA......................

.........EASTERN NC.........

CITY           SKY/WX    TMP DP  RH WIND       PRES   REMARKS
CAPE HATTERAS  FAIR      79  77  94 SW15      30.03S
JACKSONVILLE   FAIR      77  72  83 S7        30.03S
MOREHEAD CITY  FAIR      82  76  81 SW14      30.03F
KENANSVILLE    FAIR      77  74  91 SW5       30.04S
NEW BERN       FAIR      78  74  87 SW6       30.03S
ELIZABETH CITY FAIR      78  75  90 SW8       29.99F

.........CENTRAL NC.........

CITY           SKY/WX    TMP DP  RH WIND       PRES   REMARKS
RALEIGH DURHAM MOCLDY    76  69  79 SW9       30.03R
ROCKY MOUNT    FAIR      74  72  93 SW5       30.01S
ROANOKE RAPIDS NOT AVBL
FAYETTEVILLE   FAIR      77  73  87 SW9       30.02S
HOFFMAN        MOCLDY    75  71  87 SW5       30.05S

.........WESTERN NC.........

CITY           SKY/WX    TMP DP  RH WIND       PRES   REMARKS
CHARLOTTE      CLOUDY    74  69  85 S3        30.04F
GREENSBORO     MOCLDY    75  69  81 W3        30.03S
HICKORY        NOT AVBL
BOONE          NOT AVBL
ASHEVILLE      NOT AVBL

.....................REST OF SOUTH CAROLINA.....................

.........EASTERN SC.........

CITY           SKY/WX    TMP DP  RH WIND       PRES   REMARKS
CHARLESTON     FAIR      79  73  82 NW6       30.04F
BEAUFORT MCAS  FAIR      75  73  93 MISG      30.04F
HILTON HEAD    NOT AVBL

.........CENTRAL SC.........

CITY           SKY/WX    TMP DP  RH WIND       PRES   REMARKS
COLUMBIA       FAIR      74  70  87 S3        30.02F
ORANGEBURG     FAIR      73  70  90 CALM      30.05F
SUMTER SHAW    FAIR      73  71  92 S2        30.03F

.........WESTERN SC.........

CITY           SKY/WX    TMP DP  RH WIND       PRES   REMARKS
GREENVILLE     NOT AVBL
ROCK HILL      FAIR      72  70  93 SW3       30.05F
ANDERSON       FAIR      71  69  93 CALM      30.03F
CLEMSON        NOT AVBL
GREENWOOD      FAIR      74  70  87 SW5       30.05R


...................COASTAL AND OFFSHORE REPORTS..................

................LOCAL PIERS AND NC RESERVE................


STATION/POSITION TIME  SKY/WX   TEMP    WIND        PRES    VSBY
                                AIR SEA DIR/SP/G
                 (UTC)          (F)     (DEG/KT/KT) (MB)    (MI)
JOHNY MRCER PIER 0600            81 83  230/  8/ 10 1016.5S
NC RESRV MASNBRO 0500            80     220/  4     1017.0S
OCEAN CREST PIER 0600            83 84  200/ 17/ 20 1016.3R
SPRINGMAID  PIER 0600            81 84  230/  6/  7 1017.4F


................COASTAL AND OFFSHORE BUOYS................


STATION/POSITION TIME  SKY/WX   TEMP    WIND        PRES    VSBY
                                AIR SEA DIR/SP/G
                 (UTC)          (F)     (DEG/KT/KT) (MB)    (MI)
DIMNDSHOAL 41025 0600            81     230/ 17/ 19 1016.5S
WVE H/P(F/S)=  4/ 5 WND WVE H/P(F/S)=  3/ 5 SWL H/P/D(F/S/D)=  2/240/14

CAPE LOOKOUT     0500            81     230/  9/ 11 1016.9F
ONSLOW BAY 41036 0600            82 82  240/ 16/ 17 1017.2F
WVE H/P(F/S)=  3/ 4 WND WVE H/P(F/S)=  3/ 4 SWL H/P/D(F/S/D)=  2/100/ 9

5 WRITEBCH 41038 0500            79 83  230/ 14/ 17   N/A
MASONBORO  41110 0600               83                N/A
WVE H/P(F/S)=  3/ 4 WND WVE H/P(F/S)=  3/ 4

WILM HARBR 41108 0600               83                N/A
WVE H/P(F/S)=  3/ 4 WND WVE H/P(F/S)=  3/ 4

27WRITEBCH 41037 NOT AVBL
FRYING PAN 41013 NOT AVBL
SUNST NRSH 41024 0500            83     230/ 17/ 19 1016.9F
CAPRS NRSH 41029 0500            83     210/ 12/ 14   N/A
EDISTO     41004 0600            83 83  220/ 10/ 12 1016.8F
WVE H/P(F/S)=  2/ 8 WND WVE H/P(F/S)=  2/ 3 SWL H/P/D(F/S/D)=  2/ 8



..........OFFSHORE BUOYS BEYOND 100 NM OFFSHORE...........
.....IN A TRIANGLE---HAT TO BERMUDA TO BAHAMAS TO HAT.....


STATION/POSITION TIME  SKY/WX   TEMP    WIND        PRES    VSBY
                                AIR SEA DIR/SP/G
                 (UTC)          (F)     (DEG/KT/KT) (MB)    (MI)
150E HAT   41001 NOT AVBL
W BERMUDA  41048 0516            79 80  150/  4/  4 1019.5
WVE H/P(F/S)=  2/ 8 SWL H/P/D(F/S/D)=  2/100/ 8

ATLANTIC S 41049 0520            83 85   90/  6/ 10 1018.2F
WVE H/P(F/S)=  3/12 WND WVE H/P(F/S)=  2/ 4 SWL H/P/D(F/S/D)=  3/ 30/12

E BAHAMAS  41046 0514            83 84  110/ 14/ 16 1016.2F
WVE H/P(F/S)=  4/12 WND WVE H/P(F/S)=  3/ 5 SWL H/P/D(F/S/D)=  3/ 40/12

NE BAHAMAS 41047 0510            80 83  130/ 12/ 14 1017.9F
WVE H/P(F/S)=  4/ 6 WND WVE H/P(F/S)=  2/ 4 SWL H/P/D(F/S/D)=  3/130/ 6

120E CANVRL41010 0600            78 84  260/  2/  2 1018.2R
WVE H/P(F/S)=  4/14 WND WVE H/P(F/S)=  2/ 3 SWL H/P/D(F/S/D)=  3/14


END



USA.gov is the U.S. government's official web portal to all federal, state and local government web resources and services.